Weather History for KELO - February, 2013

Change the Weather History Date:

Thursday, February 28, 2013

  Actual Average Record
Temperature  
Mean Temperature 21 °F -  
Max Temperature 28 °F 24 °F 48 °F (2004)
Min Temperature 12 °F 5 °F -27 °F (2009)
Degree Days  
Heating Degree Days 44    
Moisture  
Dew Point 11 °F    
Average Humidity 66    
Maximum Humidity 86    
Minimum Humidity 47    
Precipitation  
Precipitation 0.00 in - - ()
Sea Level Pressure  
Sea Level Pressure 30.18 in    
Wind  
Wind Speed 7 mph (NNE)    
Max Wind Speed 10 mph    
Max Gust Speed 20 mph    
Visibility 10 miles    
Events Snow    
Averages and records for this station are not official NWS values.
T = Trace of Precipitation, MM = Missing Value Source: NWS Daily Summary

Daily Weather History Graph

Daily Weather History Graph

Search for Another Location

Airport or City:

Trip Planner

Search our weather history database for the weather conditions in past years. The results will help you decide how hot, cold, wet, or windy it might be!

Date:

Astronomy

Feb. 28, 2013 Rise Set
Actual Time 6:49 AM CST 5:50 PM CST
Civil Twilight 6:18 AM CST 6:21 PM CST
Nautical Twilight 5:42 AM CST 6:57 PM CST
Astronomical Twilight 5:06 AM CST 7:33 PM CST
Moon 9:38 PM CST (2/28) 7:42 AM CST (2/28)
Length of Visible Light 12h 03m
Length of Day
11h 01m
Waning Gibbous, 90% of the Moon is Illuminated
Feb 28
Waning Gibbous
Mar 4
Last Quarter
Mar 11
New
Mar 19
First Quarter
Mar 27
Full

Hourly Weather History & Observations

Time (CST) Temp. Windchill Dew Point Humidity Pressure Visibility Wind Dir Wind Speed Gust Speed Precip Events Conditions
12:12 AM 23.0 °F 13.9 °F 17.6 °F 80% 30.07 in 10.0 mi NNE 8.1 mph 19.6 mph N/A   Overcast
12:33 AM 23.0 °F 12.4 °F 17.6 °F 80% 30.07 in 10.0 mi NNE 10.4 mph 18.4 mph N/A   Overcast
12:53 AM 23.0 °F 13.1 °F 17.6 °F 80% 30.07 in 10.0 mi NNE 9.2 mph 16.1 mph N/A   Overcast
1:12 AM 21.2 °F 10.9 °F 17.6 °F 86% 30.07 in 10.0 mi NNE 9.2 mph - N/A   Overcast
1:33 AM 21.2 °F 14.9 °F 17.6 °F 86% 30.08 in 10.0 mi North 4.6 mph - N/A   Overcast
1:53 AM 21.2 °F 10.9 °F 17.6 °F 86% 30.08 in 10.0 mi NNE 9.2 mph - N/A   Overcast
2:12 AM 21.2 °F 10.9 °F 17.6 °F 86% 30.08 in 10.0 mi NNE 9.2 mph - N/A   Overcast
2:33 AM 21.2 °F 11.7 °F 17.6 °F 86% 30.08 in 10.0 mi NNE 8.1 mph - N/A   Overcast
2:53 AM 21.2 °F 10.1 °F 17.6 °F 86% 30.08 in 10.0 mi NE 10.4 mph - N/A   Overcast
3:12 AM 21.2 °F 14.9 °F 17.6 °F 86% 30.09 in 10.0 mi North 4.6 mph - N/A   Overcast
3:33 AM 21.2 °F 13.6 °F 17.6 °F 86% 30.10 in 10.0 mi NNE 5.8 mph - N/A   Overcast
3:53 AM 21.2 °F 14.9 °F 17.6 °F 86% 30.10 in 10.0 mi NNE 4.6 mph - N/A   Overcast
4:12 AM 21.2 °F 16.4 °F 17.6 °F 86% 30.11 in 10.0 mi North 3.5 mph - N/A   Overcast
4:33 AM 21.2 °F 13.6 °F 15.8 °F 80% 30.11 in 10.0 mi NNE 5.8 mph - N/A   Overcast
4:53 AM 21.2 °F 11.7 °F 15.8 °F 80% 30.12 in 10.0 mi NE 8.1 mph - N/A   Overcast
5:12 AM 21.2 °F 10.9 °F 15.8 °F 80% 30.12 in 10.0 mi NNE 9.2 mph - N/A   Overcast
5:33 AM 21.2 °F 14.9 °F 15.8 °F 80% 30.13 in 10.0 mi North 4.6 mph - N/A   Overcast
5:53 AM 19.4 °F 12.8 °F 15.8 °F 86% 30.14 in 10.0 mi North 4.6 mph - N/A   Overcast
6:12 AM 19.4 °F 14.3 °F 15.8 °F 86% 30.14 in 10.0 mi North 3.5 mph - N/A   Overcast
6:33 AM 19.4 °F 12.8 °F 14.0 °F 80% 30.15 in 10.0 mi NNE 4.6 mph - N/A   Overcast
6:53 AM 19.4 °F 11.5 °F 14.0 °F 80% 30.15 in 10.0 mi NNE 5.8 mph - N/A   Overcast
7:12 AM 19.4 °F 10.4 °F 14.0 °F 80% 30.15 in 10.0 mi NNE 6.9 mph - N/A   Overcast
7:33 AM 19.4 °F 11.5 °F 14.0 °F 80% 30.16 in 10.0 mi NNE 5.8 mph - N/A   Overcast
7:53 AM 19.4 °F 7.9 °F 14.0 °F 80% 30.17 in 10.0 mi NNE 10.4 mph - N/A   Overcast
8:12 AM 19.4 °F 9.5 °F 12.2 °F 74% 30.17 in 10.0 mi NNE 8.1 mph - N/A   Overcast
8:33 AM 19.4 °F 9.5 °F 12.2 °F 74% 30.17 in 10.0 mi NNE 8.1 mph - N/A   Overcast
8:53 AM 19.4 °F 9.5 °F 12.2 °F 74% 30.17 in 10.0 mi NE 8.1 mph - N/A   Overcast
9:12 AM 19.4 °F 10.4 °F 12.2 °F 74% 30.17 in 10.0 mi NNE 6.9 mph - N/A Snow Light Snow
9:33 AM 19.4 °F 9.5 °F 12.2 °F 74% 30.18 in 10.0 mi NNE 8.1 mph - N/A   Overcast
9:53 AM 19.4 °F 9.5 °F 12.2 °F 74% 30.18 in 10.0 mi NNE 8.1 mph - N/A   Overcast
10:12 AM 21.2 °F 12.6 °F 12.2 °F 68% 30.19 in 10.0 mi NNE 6.9 mph - N/A   Mostly Cloudy
10:33 AM 21.2 °F 13.6 °F 12.2 °F 68% 30.19 in 10.0 mi North 5.8 mph - N/A   Scattered Clouds
10:53 AM 21.2 °F 11.7 °F 12.2 °F 68% 30.19 in 10.0 mi NNE 8.1 mph - N/A   Scattered Clouds
11:12 AM 21.2 °F 10.9 °F 12.2 °F 68% 30.19 in 10.0 mi NE 9.2 mph - N/A   Clear
11:33 AM 23.0 °F 15.8 °F 12.2 °F 63% 30.19 in 10.0 mi NNE 5.8 mph - N/A   Clear
11:52 AM 24.8 °F 16.9 °F 12.2 °F 59% 30.19 in 10.0 mi NNE 6.9 mph - N/A   Clear
12:13 PM 24.8 °F 16.9 °F 10.4 °F 54% 30.19 in 10.0 mi North 6.9 mph - N/A   Clear
12:33 PM 24.8 °F 16.9 °F 10.4 °F 54% 30.19 in 10.0 mi North 6.9 mph - N/A   Clear
12:51 PM 26.6 °F 21.2 °F 10.4 °F 51% 30.19 in 10.0 mi North 4.6 mph - N/A   Clear
1:13 PM 26.6 °F 19.1 °F 10.4 °F 51% 30.19 in 10.0 mi NNE 6.9 mph - N/A   Clear
1:33 PM 26.6 °F 18.2 °F 10.4 °F 51% 30.19 in 10.0 mi NNE 8.1 mph - N/A   Clear
1:53 PM 26.6 °F 19.1 °F 10.4 °F 51% 30.18 in 10.0 mi NNE 6.9 mph - N/A   Clear
2:12 PM 28.4 °F 19.7 °F 10.4 °F 47% 30.18 in 10.0 mi NE 9.2 mph - N/A   Clear
2:33 PM 28.4 °F 19.1 °F 10.4 °F 47% 30.18 in 10.0 mi NNE 10.4 mph - N/A   Clear
2:53 PM 26.6 °F 18.2 °F 10.4 °F 51% 30.19 in 10.0 mi NNE 8.1 mph - N/A   Clear
3:12 PM 26.6 °F 18.2 °F 10.4 °F 51% 30.20 in 10.0 mi NNE 8.1 mph 16.1 mph N/A   Clear
3:33 PM 26.6 °F 17.5 °F 8.6 °F 47% 30.21 in 10.0 mi NNE 9.2 mph 16.1 mph N/A   Clear
3:52 PM 24.8 °F 17.9 °F 8.6 °F 50% 30.21 in 10.0 mi North 5.8 mph 16.1 mph N/A   Clear
4:13 PM 24.8 °F 16.9 °F 8.6 °F 50% 30.21 in 10.0 mi NNE 6.9 mph - N/A   Clear
4:33 PM 24.8 °F 15.3 °F 8.6 °F 50% 30.21 in 10.0 mi NNE 9.2 mph - N/A   Clear
4:52 PM 24.8 °F 16.1 °F 8.6 °F 50% 30.22 in 10.0 mi NNE 8.1 mph - N/A   Clear
5:13 PM 24.8 °F 16.9 °F 8.6 °F 50% 30.23 in 10.0 mi NNE 6.9 mph - N/A   Clear
5:33 PM 23.0 °F 14.7 °F 8.6 °F 54% 30.23 in 10.0 mi NNE 6.9 mph - N/A   Clear
5:52 PM 21.2 °F 14.9 °F 8.6 °F 58% 30.24 in 10.0 mi NNE 4.6 mph - N/A   Clear
6:13 PM 21.2 °F 14.9 °F 8.6 °F 58% 30.25 in 10.0 mi NNE 4.6 mph - N/A   Clear
6:33 PM 21.2 °F 12.6 °F 8.6 °F 58% 30.25 in 10.0 mi NE 6.9 mph - N/A   Clear
6:52 PM 21.2 °F 12.6 °F 6.8 °F 54% 30.25 in 10.0 mi NNE 6.9 mph - N/A   Clear
7:13 PM 19.4 °F 11.5 °F 6.8 °F 58% 30.26 in 10.0 mi NE 5.8 mph - N/A   Clear
7:33 PM 19.4 °F 11.5 °F 6.8 °F 58% 30.26 in 10.0 mi NNE 5.8 mph - N/A   Clear
7:52 PM 19.4 °F 12.8 °F 6.8 °F 58% 30.27 in 10.0 mi NE 4.6 mph - N/A   Clear
8:13 PM 19.4 °F 10.4 °F 6.8 °F 58% 30.26 in 10.0 mi NE 6.9 mph - N/A   Clear
8:33 PM 19.4 °F 11.5 °F 6.8 °F 58% 30.27 in 10.0 mi NE 5.8 mph - N/A   Clear
8:52 PM 17.6 °F 9.3 °F 5.0 °F 58% 30.27 in 10.0 mi NE 5.8 mph - N/A   Clear
9:13 PM 17.6 °F 8.2 °F 5.0 °F 58% 30.27 in 10.0 mi NE 6.9 mph - N/A   Clear
9:33 PM 17.6 °F 8.2 °F 5.0 °F 58% 30.27 in 10.0 mi NE 6.9 mph - N/A   Clear
9:52 PM 17.6 °F 9.3 °F 3.2 °F 53% 30.28 in 10.0 mi NE 5.8 mph - N/A   Clear
10:13 PM 17.6 °F 8.2 °F 1.4 °F 49% 30.28 in 10.0 mi NE 6.9 mph - N/A   Clear
10:33 PM 15.8 °F 6.1 °F 1.4 °F 53% 30.28 in 10.0 mi NE 6.9 mph - N/A   Clear
10:53 PM 15.8 °F 7.2 °F -0.4 °F 49% 30.28 in 10.0 mi NE 5.8 mph - N/A   Clear
11:13 PM 15.8 °F 6.1 °F -0.4 °F 49% 30.28 in 10.0 mi NE 6.9 mph - N/A   Clear
11:33 PM 14.0 °F - 1.4 °F 57% 30.29 in 10.0 mi Calm Calm - N/A   Clear
11:52 PM 12.2 °F - -0.4 °F 57% 30.29 in 10.0 mi Calm Calm - N/A   Clear